This is the latest recevied weather packets stored in our database for station/object W5ITZ. If no packets are shown the sender has not sent any weather packets the latest 1 day(s).
| Time | Temp. | Humidity | Pressure | Rain* | Wind** | Luminosity | Snow |
|---|---|---|---|---|---|---|---|
| 1778030443 | 25° C | 89% | 1007 hPa | 0 mm | - | 0 W/m² | - |
| 1778030141 | 25.56° C | 89% | 1007.1 hPa | 0 mm | - | 0 W/m² | - |
| 1778029531 | 25.56° C | 88% | 1006.8 hPa | 0 mm | - | 1 W/m² | - |
| 1778029227 | 25.56° C | 88% | 1006.8 hPa | 0 mm | - | 2 W/m² | - |
| 1778028924 | 25.56° C | 87% | 1006.7 hPa | 0 mm | - | 5 W/m² | - |
| 1778028620 | 25.56° C | 87% | 1006.7 hPa | 0 mm | - | 10 W/m² | - |
| 1778028318 | 25.56° C | 86% | 1006.7 hPa | 0 mm | - | 11 W/m² | - |
| 1778028014 | 25.56° C | 87% | 1006.7 hPa | 0 mm | - | 12 W/m² | - |
| 1778026798 | 25.56° C | 86% | 1006.7 hPa | 0 mm | - | 40 W/m² | - |
| 1778026495 | 25.56° C | 86% | 1006.7 hPa | 0 mm | - | 42 W/m² | - |
| 1778022258 | 26.11° C | 83% | 1006.6 hPa | 0 mm | - | 115 W/m² | - |
| 1778021954 | 26.67° C | 83% | 1006.6 hPa | 0 mm | - | 103 W/m² | - |
| 1778020741 | 26.67° C | 82% | 1006.9 hPa | 0 mm | - | 142 W/m² | - |
| 1778020438 | 26.67° C | 83% | 1007 hPa | 0 mm | - | 162 W/m² | - |
| 1778020134 | 26.67° C | 82% | 1006.9 hPa | 0 mm | - | 174 W/m² | - |
| 1778019224 | 26.67° C | 82% | 1007.1 hPa | 0 mm | - | 200 W/m² | - |
| 1778018316 | 26.67° C | 82% | 1007.5 hPa | 0 mm | - | 216 W/m² | - |
| 1778017409 | 26.67° C | 82% | 1007.3 hPa | 0 mm | - | 118 W/m² | - |
| 1778014075 | 27.22° C | 80% | 1007.7 hPa | 0 mm | - | 272 W/m² | - |
| 1778013470 | 27.78° C | 78% | 1008.1 hPa | 0 mm | - | 270 W/m² | - |
| 1778013167 | 27.22° C | 79% | 1008.1 hPa | 0 mm | - | 309 W/m² | - |
| 1778012256 | 27.22° C | 78% | 1008.5 hPa | 0 mm | - | 190 W/m² | - |
| 1778011349 | 27.22° C | 78% | 1008.4 hPa | 0 mm | - | 234 W/m² | - |
| 1778011044 | 27.22° C | 79% | 1008.6 hPa | 0 mm | - | 343 W/m² | - |
| 1778010742 | 27.22° C | 78% | 1008.6 hPa | 0 mm | - | 124 W/m² | - |
* Rain latest hour (hover to see other rain measurements)
** Current wind speed in m/s (hover to see current wind gust speed)